PROFILE

 METAR AND TAF INFORMATION
ADDS - METARS form results

(0556 UTC 19 July 2019)
http://aviationweather.gov/metar/data/
 
LFOB 190530Z AUTO 14002KT 9999 FEW019 SCT026 15/14 Q1015 NOSIG
LFOB 190500Z AUTO 16002KT 9999 FEW019 OVC092 14/13 Q1015 TEMPO 4000 BR
TAF LFOB 190500Z 1906/2006 23005KT CAVOK 

 AIRPORT MAP

 RUNWAY INFORMATION
Runway 04 Runway length 3625 ft Runway width 98 ft
Runway elevation 332 ft Runway displaced threshold 0 ft Runway heading 42
Runway 22 Runway length 3625 ft Runway width 98 ft
Runway elevation 359 ft Runway displaced threshold 0 ft Runway heading 222
Runway 13 Runway length 7972 ft Runway width 148 ft
Runway elevation 352 ft Runway displaced threshold 0 ft Runway heading 125
Runway 31 Runway length 7972 ft Runway width 148 ft
Runway elevation 297 ft Runway displaced threshold 0 ft Runway heading 305
Runway 13R Runway length 0 ft Runway width 0 ft
Runway elevation 359 ft Runway displaced threshold 0 ft Runway heading 0
Runway 31L Runway length 0 ft Runway width 0 ft
Runway elevation 359 ft Runway displaced threshold 0 ft Runway heading 0

 AIRPORT FREQUENCIES
Type APP Name BEAUVAIS A Frequency 119.9 MHZ
Type ATIS Name BEAUVAIS A Frequency 118.375 MHZ
Type TWR Name BEAUVAIS T Frequency 121.4 MHZ

 AIRPORT NEAR NAVIGATION AIDS
Type VOR Name Beauvais Frequency 115900 KHZ